Weather in Katakolo

Greece     37°38′50″N   21°18′58″E
temp.,
°C
wind,
m/s
gust,
m/s
humid.,
%
clouds,
%
prec.,
mm/h
press.,
hPa
HPBL,
m
8 march, mon
mon823:00+14sw337315 0.1 1021622
02:00+13wsw237219 0.1 1020607
05:00+13wsw337436 0.1 1019615
08:00+12ese338168 0.1 1018136
11:00+14s2274100 0.0 1017504
14:00+15ssw4375100 0.1 1016584
17:00+14sw5577100 0.9 1015371
20:00+14sse2273100 2.0 1015320
9 march, tue
tue923:00+13ene2277100 0.0 1015109
02:00+12ne338190 0.0 1015104
05:00+11nne45850 0.0 1014171
08:00+12nne46810 0.0 1015246
11:00+15nne34660 0.0 1015624
14:00+16wnw33650 0.0 1015496
17:00+15nw336434 0.0 1014307
20:00+13n227234 0.0 1015160
10 march, wed
wed1023:00+13ene1174100 0.0 101681
02:00+12e1176100 0.0 101677
05:00+12s027534 0.0 1015248
08:00+13se227818 0.0 1015121
11:00+14ssw33730 0.0 1015464
14:00+16sw67731 0.1 1014816
17:00+15w577951 0.8 1013726
20:00+15wnw568353 2.8 1015453
11 march, thu
thu1123:00+14n69815 0.3 1017450
02:00+13nnw710793 0.3 1018534
05:00+13nnw677733 0.0 1018473
08:00+13nnw687921 0.0 1020661
11:00+14nnw667011 0.0 1022910
14:00+15nw44598 0.0 1022660
17:00+15nw44670 0.0 1022577
20:00+13n12700 0.0 1024200
12 march, fri
fri1223:00+11ene22770 0.0 102491
02:00+11ese23780 0.0 1024130
05:00+11e33820 0.0 1023111
08:00+11e33800 0.0 1023116
11:00+13ssw11720 0.0 1023445
14:00+14wnw22663 0.0 1021587
17:00+14nw44620 0.0 1019707
20:00+13nnw346714 0.0 1019379